Location: Unspecified
(0.0000°N, 0.0000°E)
Time: 02:47:17
(UTC+00:00)

STARLINK-1067 - Pass Details

Date: 15 January 2020
Orbit: 546 x 548 km, 53.1° (Epoch: 18 January)

Event Time Altitude Azimuth Distance (km) Brightness Sun altitude
Rises 19:34:34 0° 312° (NW) 2,715 7.5 -19.8°
Maximum altitude 19:40:45 37° 236° (SW) 871 5.2 -21.2°
Drops below altitude 10° 19:44:38 10° 168° (SSE) 1,835 6.4 -22.1°
Sets 19:47:00 0° 159° (SSE) 2,732 7.2 -22.7°
